sat.trackr.live / text

‹ back to catalog

STARLINK-35841

NORAD 67086 · 2025-298M

PAYLOAD ACTIVE UNKNOWN

§ Identity

Operator
Country
US
Launch date
2025-12-14
Launch site
AFWTR
Launch vehicle
Mass (kg)
RCS (m²)

Purposes: comms

External: N2YO · Heavens-Above · Gunter

§ Orbital elements

Epoch: 2026-09-20T05:16:53.764608Z

Period
96.11 min
Inclination
69.9999°
Eccentricity
0.0003379
Mean motion
14.98334349 rev/d
Perigee alt
569.7 km
Apogee alt
574.4 km
Semi-major
6,950.2 km
B*
2.3490e-4
RAAN
244.0712°
Arg perigee
271.2656°
Mean anomaly
88.8116°
Rev number
4,235

§ Raw data

STARLINK-358411 67086U 25298M   26263.22006672  .00002711  00000+0  23490-3 0  99982 67086  69.9999 244.0712 0003379 271.2656  88.8116 14.98334349 42355

JSON: /api/v1/satellites/67086 · /tle

For live sub-satellite position, see the globe view (requires WebGL).

§ Visibility from observer

Set your observer location to see the next 7 days of passes ≥ 10°. The values pass through the URL so the page stays shareable.

No JS? Fill the form by hand. The geolocation button needs JavaScript.